Location: Unspecified
(48.2082°N, 0.0000°E)
Time: 19:06:03
(UTC+00:00)

Altair - Pass Details

Date: 18 June 2019
Orbit: 1501 x 1683 km, 47.2° (Epoch: 15 July)

Event Time Altitude Azimuth Distance (km) Brightness Sun altitude
Rises 22:09:20 0° 249° (WSW) 4,751 10.1 -14.1°
Reaches altitude 10° 22:12:21 10° 248° (WSW) 3,791 9.6 -14.3°
Maximum altitude 22:22:02 78° 164° (SSE) 1,669 7.5 -15.0°
Drops below altitude 10° 22:32:05 10° 81° (E) 3,926 9.5 -15.6°
Sets 22:35:17 0° 80° (E) 4,927 10.0 -15.8°
